This is the latest recevied weather packets stored in our database for station/object KO4APQ. If no packets are shown the sender has not sent any weather packets the latest 10 day(s).
| Time | Temp. | Humidity | Pressure | Rain* | Wind** | Luminosity | Snow |
|---|---|---|---|---|---|---|---|
| 1777507286 | 24.44° C | 63% | 1009.9 hPa | 0 mm | - | 9 W/m² | - |
| 1777506984 | 24.44° C | 63% | 1009.7 hPa | 0 mm | - | 12 W/m² | - |
| 1777506681 | 24.44° C | 63% | 1009.8 hPa | 0 mm | - | 16 W/m² | - |
| 1777506377 | 24.44° C | 63% | 1009.7 hPa | 0 mm | - | 23 W/m² | - |
| 1777506073 | 24.44° C | 63% | 1009.6 hPa | 0 mm | - | 31 W/m² | - |
| 1777505769 | 24.44° C | 62% | 1009.4 hPa | 0 mm | - | 40 W/m² | - |
| 1777505466 | 25° C | 63% | 1009.6 hPa | 0 mm | - | 46 W/m² | - |
| 1777505162 | 25° C | 62% | 1009.4 hPa | 0 mm | - | 54 W/m² | - |
| 1777504859 | 25° C | 61% | 1009.6 hPa | 0 mm | - | 58 W/m² | - |
| 1777504556 | 25.56° C | 60% | 1009.8 hPa | 0 mm | - | 65 W/m² | - |
| 1777504252 | 25.56° C | 59% | 1009.8 hPa | 0 mm | - | 69 W/m² | - |
| 1777503948 | 26.11° C | 58% | 1009.8 hPa | 0 mm | - | 64 W/m² | - |
| 1777503644 | 26.67° C | 56% | 1009.7 hPa | 0 mm | - | 72 W/m² | - |
| 1777503341 | 26.67° C | 56% | 1009.8 hPa | 0 mm | - | 96 W/m² | - |
| 1777503037 | 27.22° C | 54% | 1009.7 hPa | 0 mm | - | 112 W/m² | - |
| 1777502735 | 27.22° C | 53% | 1009.7 hPa | 0 mm | - | 163 W/m² | - |
| 1777502432 | 27.22° C | 55% | 1009.9 hPa | 0 mm | - | 208 W/m² | - |
| 1777502129 | 26.67° C | 55% | 1009.8 hPa | 0 mm | - | 237 W/m² | - |
| 1777501827 | 26.67° C | 55% | 1009.4 hPa | 0 mm | - | 194 W/m² | - |
| 1777501523 | 26.11° C | 55% | 1009.6 hPa | 0 mm | - | 160 W/m² | - |
| 1777501220 | 26.11° C | 55% | 1009.4 hPa | 0 mm | - | 114 W/m² | - |
| 1777500918 | 26.67° C | 55% | 1009.7 hPa | 0 mm | - | 79 W/m² | - |
| 1777500615 | 26.67° C | 54% | 1009.5 hPa | 0 mm | - | 80 W/m² | - |
| 1777500312 | 26.67° C | 53% | 1009.5 hPa | 0 mm | - | 190 W/m² | - |
| 1777500008 | 27.22° C | 53% | 1009.6 hPa | 0 mm | - | 112 W/m² | - |
* Rain latest hour (hover to see other rain measurements)
** Current wind speed in m/s (hover to see current wind gust speed)